TimeEST,TemperatureF,Dew PointF,Humidity,Sea Level PressureIn,VisibilityMPH,Wind Direction,Wind SpeedMPH,Gust SpeedMPH,PrecipitationIn,Events,Conditions,WindDirDegrees,DateUTC
12:56 AM,37.9,36.0,93,29.89,6.0,Calm,Calm,-,N/A,,Clear,0,2013-12-03 05:56:00
1:56 AM,37.0,36.0,96,29.90,5.0,WSW,3.5,-,N/A,,Clear,240,2013-12-03 06:56:00
2:56 AM,37.0,36.0,96,29.91,5.0,Calm,Calm,-,N/A,,Clear,0,2013-12-03 07:56:00
3:56 AM,36.0,35.1,97,29.91,5.0,Calm,Calm,-,N/A,,Clear,0,2013-12-03 08:56:00
4:56 AM,36.0,34.0,93,29.91,5.0,Calm,Calm,-,N/A,,Clear,0,2013-12-03 09:56:00
5:56 AM,35.1,33.1,92,29.93,4.0,Calm,Calm,-,N/A,,Clear,0,2013-12-03 10:56:00
6:56 AM,34.0,33.1,96,29.96,3.0,Calm,Calm,-,N/A,,Clear,0,2013-12-03 11:56:00
7:56 AM,37.0,36.0,96,29.99,6.0,Calm,Calm,-,N/A,,Mostly Cloudy,0,2013-12-03 12:56:00
8:56 AM,44.1,39.9,85,30.00,7.0,Calm,Calm,-,N/A,,Clear,0,2013-12-03 13:56:00
9:56 AM,48.9,41.0,74,30.00,10.0,East,3.5,-,N/A,,Clear,100,2013-12-03 14:56:00
10:56 AM,55.0,36.0,49,30.00,10.0,ESE,5.8,-,N/A,,Clear,110,2013-12-03 15:56:00
11:56 AM,57.9,37.9,47,29.99,10.0,East,6.9,-,N/A,,Clear,80,2013-12-03 16:56:00
12:56 PM,60.1,39.0,46,29.98,10.0,ESE,6.9,-,N/A,,Clear,120,2013-12-03 17:56:00
1:56 PM,60.1,37.0,42,29.97,10.0,SSE,6.9,-,N/A,,Partly Cloudy,160,2013-12-03 18:56:00
2:56 PM,60.1,37.9,44,29.97,10.0,SSE,9.2,19.6,N/A,,Mostly Cloudy,160,2013-12-03 19:56:00
3:56 PM,57.9,41.0,53,29.98,10.0,SSE,5.8,-,N/A,,Overcast,160,2013-12-03 20:56:00
4:56 PM,55.9,43.0,62,30.00,10.0,Variable,4.6,-,N/A,,Overcast,0,2013-12-03 21:56:00
5:56 PM,54.0,44.1,69,30.02,10.0,SSE,3.5,-,N/A,,Mostly Cloudy,160,2013-12-03 22:56:00
6:56 PM,51.1,44.1,77,30.03,10.0,Calm,Calm,-,N/A,,Mostly Cloudy,0,2013-12-03 23:56:00
7:56 PM,51.1,46.0,83,30.03,10.0,SE,3.5,-,N/A,,Overcast,140,2013-12-04 00:56:00
8:56 PM,50.0,44.1,80,30.03,10.0,SSE,3.5,-,N/A,,Overcast,160,2013-12-04 01:56:00
9:56 PM,51.1,45.0,80,30.04,10.0,SSE,4.6,-,0.00,Rain,Light Rain,160,2013-12-04 02:56:00
10:56 PM,53.1,46.9,80,30.04,10.0,Calm,Calm,-,0.00,,Overcast,0,2013-12-04 03:56:00
11:56 PM,53.1,48.0,83,30.05,10.0,East,3.5,-,N/A,,Mostly Cloudy,80,2013-12-04 04:56:00